Regional Weather Roundup
Issued by NWS

Home | Current Version | Previous Version | Graphics & Text | Print | Product List | Glossary On
Versions: 1 2 3 4 5 6 7 8 9 10 11 12 13 14 15 16 17 18 19 20 21 22 23 24 25 26 27 28 29 30 31 32 33 34 35 36 37 38 39 40 41 42 43 44 45 46 47 48 49 50
559
ASUS43 KDMX 310403
RWRIA

WEATHER ROUNDUP FOR IOWA
NATIONAL WEATHER SERVICE DES MOINES IA
1100 PM CDT SAT JUL 30 2016

NOTE: "FAIR" INDICATES FEW OR NO CLOUDS BELOW 12,000 FEET WITH NO
SIGNIFICANT WEATHER AND/OR OBSTRUCTIONS TO VISIBILITY.

* - THESE STATIONS ARE NOT NWS STATIONS...THUS NOT UNDER NWS
QUALITY CONTROL.  THEY ALSO DO NOT REPORT WEATHER SUCH
AS PRECIPITATION OR FOG.

IAZ001>003-012>014-020>022-031>034-043>046-310500-
   NORTHWEST IOWA

CITY           SKY/WX    TMP DP  RH WIND       PRES   REMARKS
CARROLL *      CLEAR     66  64  94 CALM      30.00R
CHEROKEE *     CLEAR     66  65  96 CALM      29.99R
DENISON *      CLEAR     66  64  94 E6        29.97S
LE MARS *      CLEAR     72  64  78 SE8       29.98S
SHELDON *      CLEAR     64  63  94 CALM      29.98S
SIOUX CITY     CLEAR     70  62  76 E6        29.96R
SPENCER        CLEAR     64  60  87 CALM      30.00R
STORM LAKE *   PTCLDY    66  63  88 SE5       30.01R
$$

IAZ055>058-069>071-079>083-090>094-310500-
   SOUTHWEST IOWA

CITY           SKY/WX    TMP DP  RH WIND       PRES   REMARKS
ATLANTIC *     CLEAR     66  64  94 CALM      29.99S
CLARINDA *       N/A     66  64  94 MISG      30.01R
COUNCIL BLFS *   N/A     68  66  94 SE3       29.99S
CRESTON *      CLEAR     68  64  88 SE5       30.01S
HARLAN  *      CLEAR     66  64  94 CALM      30.03R
LAMONI         CLEAR     70  64  81 E3        30.00R
RED OAK *      CLEAR     66  66 100 CALM      29.99S
SHENANDOAH *     N/A     70  68  94 CALM      29.99S
$$

IAZ047>049-059>061-072>074-084-310500-
   CENTRAL IOWA

CITY           SKY/WX    TMP DP  RH WIND       PRES   REMARKS
AMES           CLEAR     66  66 100 CALM      29.99R
ANKENY *         N/A    N/A N/A N/A MISG        N/A
BOONE *          N/A     66  64  94 SE5       29.99S
CHARITON *       N/A    N/A N/A N/A MISG        N/A
DES MOINES     CLEAR     75  65  70 E7        29.98R
GRINNELL*      PTCLDY    69  65  86 CALM      30.01S
KNOXVILLE *    CLEAR     72  64  78 E3        29.99R
MARSHALLTOWN   CLEAR     68  66  93 E3        30.00R
NEWTON *       CLEAR     70  66  88 CALM      30.00R
PELLA *        CLEAR     66  65  94 CALM      30.01R
PERRY *          N/A     66  65  97 CALM      29.99S
$$

IAZ004>006-015-016-023>025-035-036-310500-
   NORTH CENTRAL IOWA

CITY           SKY/WX    TMP DP  RH WIND       PRES   REMARKS
ALGONA *       CLEAR     70  66  88 SE6       30.01R
ESTHERVILLE    CLEAR     63  63 100 S5        30.00R
FORT DODGE *   CLEAR     66  63  88 CALM      30.01R
MASON CITY     CLOUDY    67  65  93 SW5       30.03R
FOREST CITY *    N/A     66  64  94 SE5       30.01R
IOWA FALLS *     N/A     68  65  89 SE5       30.02R
$$

IAZ007>011-017>019-026>030-037>042-050>054-066-310500-
   NORTHEAST IOWA

CITY           SKY/WX    TMP DP  RH WIND       PRES   REMARKS
CEDAR RAPIDS   CLEAR     68  68 100 E5        29.99S
CHARLES CITY * MOCLDY    68  68 100 SE7       30.02R
CLINTON *      CLEAR     67  64  90 E7        30.01S
DECORAH *      PTCLDY    66  64  94 E5        30.02S
DUBUQUE          N/A    N/A N/A N/A MISG      30.03S
MONTICELLO *   CLEAR     66  64  94 CALM      30.01S
OELWEIN *      CLEAR     66  64  94 E6        30.02S
WATERLOO       CLEAR     67  64  90 E5        29.99R
$$

IAZ064-065-067-068-078-310500-
   EAST CENTRAL IOWA

CITY           SKY/WX    TMP DP  RH WIND       PRES   REMARKS
DAVENPORT      CLEAR     68  65  90 E5        30.01R
IOWA CITY      PTCLDY    73  67  81 E3        30.01R
MT. PLEASANT * CLEAR     69  69  99 CALM      29.99S
MUSCATINE *    PTCLDY    70  66  88 CALM      29.99S
QUAD CITIES    CLEAR     71  66  84 E3        30.00R
$$

IAZ062-063-075>077-085>089-095>099-310500-
   SOUTHEAST IOWA

CITY           SKY/WX    TMP DP  RH WIND       PRES   REMARKS
BURLINGTON     CLEAR     69  69 100 CALM      29.99S
FAIRFIELD *    CLEAR     68  64  88 CALM      29.99S
KEOKUK *       CLEAR     70  68  94 CALM      29.98S
CENTERVILLE *    N/A     64  64 100 CALM      30.02R
OTTUMWA        CLEAR     68  64  87 CALM      29.99R
WASHINGTON *   CLEAR     68  68 100 CALM      30.00S
$$

ABBREVIATIONS USED IN REMARKS
   TC - TEMPERATURES IN CELSIUS
  WCI - WIND CHILL INDEX
   HX - HEAT INDEX
  VSB - VISIBILITY
$$





USA.gov is the U.S. government's official web portal to all federal, state and local government web resources and services.